Hourly Data Report for October 04, 2017

All times are specified in Local Standard Time (LST). Add 1 hour to adjust for Daylight Saving Time where and when it is observed.

YOHIN
NORTHWEST TERRITORIES

61°14'31.000" N
123°44'30.000" W
204.00 m
2204300
71020
XYH

Download Data

Hourly Data (October 2017)
Hourly Data Report for October 4, 2017
Temp Definition
°C
Dew Point Temp Definition
°C
Rel Hum Definition
%
Wind Dir Definition
10's deg

Wind Spd Definition
km/h
Visibility Definition
km
Stn Press Definition
kPa
Hmdx Definition


Wind Chill Definition


Weather Definition


TIME
00:00 2.9 1.7 91 LegendMM LegendMM   99.35     LegendNANA
01:00 4.0 1.4 83 LegendMM LegendMM   99.34     LegendNANA
02:00 1.3 0.0 91 LegendMM LegendMM   99.34     LegendNANA
03:00 0.6 -0.2 94 LegendMM LegendMM   99.36     LegendNANA
04:00 1.0 0.3 95 LegendMM LegendMM   99.32     LegendNANA
05:00 2.4 1.2 92 LegendMM LegendMM   99.28     LegendNANA
06:00 3.2 1.6 89 LegendMM LegendMM   99.27     LegendNANA
07:00 3.6 1.8 88 LegendMM LegendMM   99.23     LegendNANA
08:00 3.5 1.6 87 LegendMM LegendMM   99.20     LegendNANA
09:00 4.0 2.4 89 LegendMM LegendMM   99.19     LegendNANA
10:00 4.6 2.5 86 LegendMM LegendMM   99.15     LegendNANA
11:00 5.8 2.6 80 LegendMM LegendMM   99.08     LegendNANA
12:00 8.0 3.0 71 LegendMM LegendMM   99.05     LegendNANA
13:00 11.1 3.6 60 LegendMM LegendMM   99.01     LegendNANA
14:00 11.5 3.9 59 LegendMM LegendMM   98.98     LegendNANA
15:00 14.3 4.5 52 LegendMM LegendMM   98.94     LegendNANA
16:00 15.0 4.7 50 LegendMM LegendMM   98.89     LegendNANA
17:00 14.3 4.7 53 LegendMM LegendMM   98.84     LegendNANA
18:00 12.9 4.6 57 LegendMM LegendMM   98.76     LegendNANA
19:00 10.6 4.5 66 LegendMM LegendMM   98.74     LegendNANA
20:00 9.5 4.1 69 LegendMM LegendMM   98.71     LegendNANA
21:00 4.4 2.3 86 LegendMM LegendMM   98.71     LegendNANA
22:00 3.5 2.4 93 LegendMM LegendMM   98.69     LegendNANA
23:00 3.0 2.2 95 LegendMM LegendMM   98.65     LegendNANA

Notes on Data Quality.

Legend

  • E = Estimated
  • M = Missing
  • NA = Not Available
  • ‡ = Partner data that is not subject to review by the National Climate Archives
Date modified: